ONEWEB-0691, 61599

Orbit data source: Space-Track

ONEWEB-0691, 61599 is a payload satellite owned by Eut. One Web (UK) in LEO that was launched on Sun, 20 Oct 2024 UTC via an FALCON 9 launch vehicle from the Air Force Western Test Range (AFWTR). Payload-class satellites include a variety of spacecraft equipped with specific instruments for various scientific and technological missions. These include communications satellites like Starlink; space stations such as the ISS; scientific satellites like the Hubble; Earth observation satellites from companies like Planet Labs, Umbra, and HawkEye 360; GPS; miniature CubeSats for education and research; and military/defense satellites.

Loading next visibility...
Identifier
61599, 2024-188F
Orbit
LEO
Last TLE update
14 hours ago
Origin
Manufacturer
One Web
Mission
Operational Commercial Communications
Bus & Motor
ARROW, Unknown motor
Mass
148 kg wet, ~140 kg dry
Launch date (UTC)
2024-10-20 (8 months ago)
Launch vehicle
FALCON 9
Launch site
Air Force Western Test Range (AFWTR)
Object type
Payload
Rocket body
Debris
Shape & HBR
Trap Box + 2 Pan, 5 m
Radar Cross Section
2.032 m², Medium (>0.1 m² and < 1m²)

Expand to show TLE details & history

TLE from 14 hours ago
0 ONEWEB-0691
1 61599U 24188F   25181.84922344 -.00000493  00000-0 -14263-2 0  9992
2 61599  87.8747  91.0792 0001513  78.6248 281.5050 13.11415180 38430
Epoch: 2025-06-30T20:22Z
TLE epoch observation values (Epoch: 2025-06-30T20:22:52.905Z)
Latitude
0.00001°
Longitude
-133.79437°
Altitude
1,220.349 km
Speed
7.244 km/s
True Right ascension
06h 04m 19s
True Declination
0° 00' 00"
Sunlit
Object was in daylight at epoch
Visualization orbit readout
Latitude
24.54804°
Longitude
45.12584°
Altitude
1,220.429 km
Speed
7.246 km/s
Apparent Right ascension
15h 02m 18s
Apparent Declination
-9° 16' 48"
Sunlit
Object is in full shadow
Visualization observer readout
Local Sidereal Time
21:37:43
Azimuth
268.462° W
Elevation
-12.71°
Doppler factor
1
Orbital elements
Apogee altitude
1,215.957 km
Perigee altitude
1,213.659 km
Semi-major axis
7,592.945 km
Eccentricity
0.00015
Inclination
87.8747°
RAAN
91.0792°
Arg. of periapsis
78.6248°
True anomaly
Unknown
Mean anomaly
281.505°
Eccentric anomaly
Unknown
Mean motion
3.28041 °/min
Orbital period
109.74 mins
BSTAR
-0.0014263
Loading maneuver chart data...
Loading SW <> Apogee altitude chart data...
Loading historical data...
Loading historical data...
Loading historical data...
Loading historical data...
Loading historical data...
Loading historical data...
Loading historical data...

ONEWEB-0691 Visibility forecast

Observer location: undefined°, undefined°

Span
Click to sort rows by Start time (UTC) header in descending order
Start Az.
Max El. time (UTC)
Max El. Az.
Max El.
End time (UTC)
End Az.
7 mins2025-07-01 16:41:21.186Z100.033° ESE2025-07-01 16:44:21.186Z74.058° E15.214°2025-07-01 16:48:21.186Z39.785° NE
13 mins2025-07-01 18:27:21.186Z180.32° SSW2025-07-01 18:33:21.186Z237.701° WSW44.943°2025-07-01 18:40:21.186Z359.925° N
5 mins2025-07-01 20:22:21.186Z270.881° WNW2025-07-01 20:24:21.186Z288.445° WNW13.827°2025-07-01 20:27:21.186Z314.082° NW
13 mins2025-07-02 05:57:21.186Z3.93° NNE2025-07-02 06:03:21.186Z102.662° ESE44.182°2025-07-02 06:10:21.186Z174.8° S
7 mins2025-07-02 07:49:21.186Z313.744° NW2025-07-02 07:52:21.186Z285.183° WNW17.615°2025-07-02 07:56:21.186Z249.964° W
|